Meath Environmental Platform

Observations for Trim Patrick St

Time AQI Temp °C Hum % Pres Pa CO μg/m³ H₂S μg/m³ NO μg/m³ NO₂ μg/m³ O₃ μg/m³ SO₂ μg/m³ PM1 μg/m³ PM2.5 μg/m³ PM10 μg/m³
Thursday 6 August 2026
22:06 3 17.8 59 72,732 0 9.31 1.27 19.64 49.33 2.13 3.71 9.56 10.52
22:05 3 17.8 59 72,689 0 9.55 1.51 19.54 47.61 1.54 2.86 7.35 8.09
22:04 3 17.8 57 72,662 0 9.65 1.49 20.94 50.61 1.94 3.71 9.71 10.69
22:03 3 17.9 59 72,624 0 9.68 1.48 19.45 41.52 1.99 3.71 8.84 9.73
22:02 3 17.9 58 72,572 0 10.54 1.65 27.15 45.11 1.61 2.86 7.39 8.13
22:01 3 17.9 59 72,509 0 10.15 1.72 26.06 48.25 2.03 2.86 6.57 7.23
22:00 3 17.9 59 72,454 0 9.7 1.33 21.42 48.91 2.13 2.86 7.31 8.05
21:59 3 17.9 59 72,408 0 11.17 1.13 22.75 48.47 1.89 2.86 8.08 8.89
21:58 3 18 57 72,287 0 10.59 1.1 29.09 45.74 2.17 2.86 7.45 8.19
21:48 3 18.2 58 71,163 0 11.98 1.08 30.77 48.16 2.45 2 6.65 7.31
21:47 3 18.2 57 71,077 0 11.22 1.07 26.65 43.25 2.86 2 6.7 7.37
21:46 3 18.3 58 70,989 0 11.28 1.08 33.63 43.32 2.04 2 6.68 7.35
21:45 3 18.3 57 70,902 0 11.25 1.07 25.17 44.88 2.31 2 5.95 6.55
21:44 3 18.3 58 70,849 0 12.4 1.11 29.71 47.94 3.2 2 6.69 7.36
21:43 3 18.3 57 70,775 0 11.67 1.31 34.03 45.28 2.18 2 6.69 7.36
21:42 3 18.4 57 70,678 0 10.93 1.61 30.87 38.56 2.48 2.86 8.96 9.85
21:41 3 18.4 57 70,609 0 12.22 1.99 28.21 43.15 2.73 2.86 8.96 9.85
21:40 3 18.4 56 70,574 0 10.86 1.98 38.11 44.53 2.1 2.86 8.25 9.08
21:39 3 18.4 56 70,522 0 9.33 1.76 20.49 45.5 2.75 2.86 7.54 8.29
21:38 3 18.5 57 70,512 0 10.28 1.71 21.53 50.65 2.97 3.71 8.25 9.07